Dewpoint
59 59 60 60 60 60 60 60 60 60 61 61 61 60 61 61 61 60 60 60 60 61 61 60 61 61 61 61 60 59 56 34 28 25 21 22 38 52 53 56 58 58 58 48 32 25 21 21 20 26 22 22 29 29 28 26 30 35 29 27 24 26 18 18 11 11 21 22 23 23 22 24 25 28 29 28 27 32 33 33 32 25 21 26 32 33 34 35
59 59 59 59 59 60 60 60 60 60 60 61 60 60 60 60 60 59 60 61 61 62 61 61 61 60 61 61 59 58 49 31 24 20 22 42 52 54 56 58 57 58 55 25 22 22 23 20 17 13 14 18 27 24 25 25 22 30 27 25 24 23 16 13 10 11 12 21 22 22 21 20 17 26 25 20 22 28 27 30 32 29 21 29 32 33 34 34
59 59 59 58 59 59 60 60 60 60 60 60 60 60 60 60 60 60 60 60 60 61 61 61 60 59 60 60 59 57 40 29 26 21 31 56 52 55 57 57 58 57 48 25 25 26 26 22 19 13 10 11 18 24 25 23 23 27 23 21 26 20 13 12 12 13 15 13 18 21 20 18 17 22 22 22 21 29 23 23 29 28 22 25 29 31 32 33
59 59 58 58 58 58 59 60 60 60 60 60 60 60 60 61 60 60 60 60 60 60 60 61 60 59 59 59 59 53 40 36 26 21 27 53 57 57 57 56 57 56 52 44 34 34 27 20 15 14 18 21 21 21 19 22 20 24 22 22 24 16 10 11 12 16 13 12 11 15 23 19 19 22 21 24 21 22 22 24 25 27 24 22 27 28 30 31
58 58 58 58 58 59 59 59 59 59 59 60 60 60 60 60 60 60 60 60 61 60 60 60 61 60 59 59 57 42 35 28 20 21 26 52 54 57 56 56 56 52 46 42 39 31 23 17 14 18 22 17 28 21 16 21 17 25 20 26 16 10 8 14 14 16 13 13 11 14 17 18 21 21 23 21 17 14 21 23 27 25 26 21 25 26 27 28
58 58 58 58 58 58 58 59 59 59 59 59 59 60 59 60 59 60 60 60 60 60 60 60 61 60 58 58 46 44 30 21 25 18 45 52 54 54 54 53 56 50 47 36 30 22 17 13 14 19 21 15 17 16 18 13 17 13 22 15 10 8 8 12 14 15 14 14 9 18 20 21 21 22 25 21 19 18 31 36 39 33 27 22 24 25 25 25
58 58 58 57 58 58 58 59 59 58 59 59 58 60 60 60 59 60 59 59 60 61 61 60 60 58 57 53 47 40 35 30 16 23 47 50 50 49 48 54 55 46 35 24 20 20 15 13 13 23 22 23 26 18 19 16 17 18 18 18 14 10 9 13 12 12 12 11 11 16 21 18 23 21 26 21 20 24 29 38 39 36 35 26 23 24 25 25
58 58 58 58 58 58 59 58 58 59 60 60 60 60 60 61 60 59 59 59 59 60 61 60 59 58 52 47 42 38 37 26 16 26 42 48 30 28 37 28 33 33 22 21 21 16 14 11 9 21 19 16 25 25 31 21 24 23 20 27 13 10 13 11 9 10 12 10 11 13 12 14 18 17 17 12 13 16 20 26 39 33 28 24 23 23 24 24
58 58 58 58 58 58 59 59 59 59 59 59 59 60 61 61 60 59 59 59 59 60 60 60 59 58 55 36 29 25 21 16 20 23 24 21 19 20 22 21 22 23 23 21 20 16 17 17 15 14 20 22 23 29 31 22 20 24 22 25 12 9 12 10 11 11 10 13 14 10 10 12 11 12 10 9 9 10 13 21 33 30 26 24 23 23 23 23
58 58 58 57 58 58 58 58 59 59 59 59 59 59 61 60 60 59 58 60 59 60 60 60 59 58 44 35 35 25 24 15 17 21 23 21 20 21 21 22 22 23 23 23 20 17 14 11 17 14 20 20 26 27 28 22 21 27 27 27 18 14 11 12 10 10 11 12 13 10 11 11 13 12 9 13 12 13 15 14 31 28 26 25 25 25 24 23
58 58 57 57 57 58 58 58 59 59 59 58 59 60 60 61 60 59 59 59 60 60 60 59 56 42 30 33 25 19 17 19 23 19 20 23 19 18 19 20 22 23 24 22 22 24 21 24 29 19 31 21 24 29 28 28 30 27 26 27 24 23 13 12 11 9 11 12 12 12 12 13 13 18 12 10 15 16 14 14 21 28 26 25 25 26 26 25
57 57 57 57 57 58 58 59 59 59 59 59 60 60 60 59 59 59 60 59 59 60 59 59 54 41 29 31 25 20 18 22 26 18 20 22 21 19 20 21 22 23 23 22 21 24 28 31 26 31 22 32 23 28 28 33 30 26 24 18 28 26 17 11 9 8 12 9 13 12 12 12 16 14 13 13 14 16 14 13 14 23 25 24 24 24 26 26
56 57 57 57 57 58 58 58 58 59 59 60 59 59 58 58 59 59 59 58 58 59 59 57 54 44 37 32 28 19 17 21 23 21 23 23 23 21 19 19 21 23 22 24 24 28 35 31 25 27 36 35 33 22 30 31 29 28 22 23 20 26 21 17 9 10 10 10 15 17 6 12 13 12 12 13 16 16 15 14 13 17 22 23 22 22 23 25
56 57 57 57 58 58 58 58 58 59 59 58 59 57 57 58 59 58 59 57 57 56 57 58 50 42 31 31 20 18 23 29 24 22 24 25 21 20 19 20 21 20 21 22 26 31 30 29 32 36 39 33 31 33 27 26 30 14 27 21 18 15 19 16 9 10 12 15 16 23 8 10 7 7 10 11 15 15 14 14 14 15 17 19 22 21 21 23
55 56 56 58 58 57 58 58 58 58 58 59 57 57 57 57 57 59 59 57 55 58 57 57 47 39 33 33 18 26 49 26 20 22 27 24 23 21 22 23 20 19 18 22 22 23 23 34 32 31 29 35 36 29 31 26 25 23 17 19 24 16 25 15 14 10 9 13 16 20 12 9 7 8 12 17 18 15 14 14 14 14 14 15 18 20 20 21
56 56 56 58 57 57 56 56 56 57 58 58 57 57 56 56 57 59 58 57 56 52 52 50 49 35 26 24 16 41 24 17 17 21 24 24 24 23 23 23 21 17 17 18 21 21 23 29 30 33 29 28 30 26 27 22 24 24 17 20 17 19 21 21 17 17 18 20 19 17 12 15 9 12 15 17 15 15 14 14 13 12 12 12 15 19 19 23
56 55 56 56 56 57 57 56 56 57 58 58 57 56 56 58 58 57 56 58 50 52 45 41 32 35 22 27 17 17 17 18 20 21 20 25 24 24 23 21 17 19 17 17 19 22 21 19 31 24 34 22 31 27 17 20 19 19 21 16 22 14 16 14 23 25 22 19 14 18 16 13 12 13 13 14 18 15 14 13 12 13 14 16 19 19 19 21
56 56 56 55 55 57 57 57 56 56 57 57 56 54 53 56 56 48 52 45 46 50 48 45 32 24 28 15 14 16 19 20 20 20 20 21 25 25 24 22 22 20 18 17 19 15 19 18 26 19 23 25 23 22 15 13 19 20 17 16 19 20 15 15 15 23 20 23 18 20 16 14 13 13 14 15 17 15 14 14 13 13 13 14 15 16 17 19
56 56 57 56 56 56 56 56 56 56 56 57 55 55 56 55 54 40 43 47 40 35 31 33 32 23 24 24 17 19 20 20 21 21 24 24 25 25 24 23 23 20 26 22 26 17 22 25 29 22 19 21 19 22 20 21 28 23 23 21 20 16 14 10 20 27 24 18 18 17 15 16 17 18 17 15 13 14 13 14 14 15 16 16 17 16 17 21
56 56 56 55 54 54 55 55 55 56 57 49 53 53 47 40 39 40 41 40 34 37 36 37 36 35 28 16 17 19 22 19 17 21 24 26 24 23 19 21 30 24 25 23 31 24 28 17 19 19 22 25 27 25 24 26 25 24 21 18 18 17 18 23 26 27 27 22 21 19 21 21 20 18 15 12 12 13 14 14 14 15 16 17 18 19 20 22
56 56 56 54 53 53 54 55 55 55 55 50 49 41 27 31 31 32 33 32 36 35 36 36 31 26 19 19 21 21 15 15 17 20 24 26 26 24 21 22 25 23 24 30 27 33 29 20 21 24 27 21 21 28 26 22 25 20 19 18 17 21 15 20 24 28 27 19 19 21 19 17 15 13 13 15 15 14 15 15 16 18 19 19 18 18 19 20
56 56 56 54 53 53 55 55 55 55 54 49 47 40 41 42 46 44 29 20 33 37 36 34 27 23 19 20 21 23 18 15 16 21 23 25 25 15 29 21 25 20 30 29 26 24 20 18 22 24 21 23 26 28 27 22 19 22 19 18 16 17 20 26 24 25 27 19 17 19 15 13 13 16 17 15 17 19 19 18 18 19 18 18 18 18 19 19
56 55 56 55 53 54 55 55 54 54 50 48 46 45 44 47 48 45 41 31 33 36 36 34 29 29 19 21 23 25 18 21 26 22 20 24 31 24 28 21 22 27 30 31 24 22 20 24 27 27 27 25 27 25 24 25 24 18 15 16 14 21 14 15 22 25 26 18 16 15 16 17 18 17 16 17 17 19 22 21 20 19 18 18 18 18 19 19
55 55 56 53 52 53 54 54 54 48 46 46 46 44 46 48 48 48 40 27 28 34 37 33 31 30 25 20 25 23 22 29 25 20 23 24 29 31 25 27 25 24 22 27 28 24 21 26 22 27 27 26 21 25 22 20 19 22 20 18 15 18 19 15 16 22 23 22 24 20 18 16 19 12 14 17 20 18 18 17 18 20 21 21 22 21 21 20
54 55 55 54 52 54 53 54 46 40 42 48 45 47 46 48 47 49 29 30 28 32 37 39 34 25 20 21 26 25 30 29 28 24 25 21 25 30 26 33 22 22 28 30 28 25 22 25 25 28 22 23 22 20 23 22 17 19 21 22 19 20 15 19 21 15 12 13 21 18 10 11 12 14 15 17 16 16 17 18 19 19 19 20 18 19 21 23
54 55 55 54 54 54 55 46 45 45 46 41 47 48 48 47 48 47 34 21 16 30 34 34 23 28 22 26 22 31 28 26 26 20 30 22 30 34 31 26 24 20 30 24 21 23 24 23 28 28 25 25 23 21 23 23 18 10 15 22 19 17 17 18 17 13 9 4 13 20 6 9 14 12 15 16 16 16 17 18 17 17 18 19 19 18 19 20
54 55 55 54 53 53 34 34 46 49 45 49 47 48 47 47 49 46 29 20 17 25 29 35 28 29 31 30 24 31 12 26 21 25 26 30 35 39 21 25 29 30 31 29 18 12 25 26 21 23 20 22 22 21 20 20 15 12 19 23 18 17 15 17 17 14 13 18 18 19 13 7 9 13 16 15 16 17 18 17 17 16 17 18 19 20 20 21
54 55 55 53 52 54 36 43 47 47 43 48 47 47 47 47 47 46 21 2 -1 29 28 28 34 33 29 32 22 24 23 30 21 27 24 31 35 35 25 24 25 27 29 19 8 22 28 24 23 22 21 20 18 21 20 22 13 16 22 22 18 17 18 19 16 16 17 13 13 15 17 10 10 15 15 16 16 17 17 17 17 17 18 19 20 21 21 21
54 54 55 52 53 54 50 45 48 46 46 47 46 47 48 47 43 28 22 -1 16 30 35 34 36 31 33 32 29 27 26 30 18 28 31 31 29 33 26 32 32 29 30 22 13 20 29 23 26 25 18 15 22 16 18 21 13 22 23 23 22 21 20 18 13 13 13 9 8 14 17 7 11 14 12 15 16 16 16 16 16 18 19 19 20 20 20 21
54 54 55 54 51 46 42 47 44 47 46 46 47 46 48 45 35 24 7 -2 28 20 30 31 28 23 32 23 25 27 25 28 27 32 31 30 27 31 30 36 31 30 25 30 26 25 29 31 33 27 23 21 18 18 21 22 22 25 22 19 21 21 20 18 17 15 11 5 13 15 18 9 6 12 11 14 13 18 17 15 16 18 18 19 19 19 20 19
54 53 54 52 39 41 45 44 46 47 46 47 47 48 44 37 21 9 -6 5 30 29 31 30 26 32 26 22 18 27 28 29 29 29 24 32 28 31 31 28 29 23 23 24 24 28 30 29 26 26 29 28 19 20 26 25 22 19 16 16 14 14 15 15 14 14 5 3 10 9 15 13 4 7 15 17 18 18 16 15 16 16 17 19 19 20 20 20
54 53 54 48 47 48 28 29 44 48 48 47 48 44 32 16 24 5 2 26 17 19 17 16 25 25 26 27 19 24 21 26 29 25 17 21 21 21 22 15 22 12 20 13 12 24 24 25 26 28 28 23 24 19 21 24 23 21 19 13 5 6 5 0 9 3 4 6 6 9 11 7 6 10 16 16 16 18 18 19 18 18 17 17 19 20 20 19
53 52 52 50 48 43 45 45 47 48 47 47 44 37 24 15 -6 12 8 15 6 18 16 22 20 26 25 24 23 24 25 17 26 28 25 27 24 20 23 24 23 13 2 18 13 15 16 23 26 26 26 28 21 10 9 10 16 13 11 10 8 0 -3 -5 1 4 5 9 11 8 8 6 10 14 16 15 17 17 18 18 19 19 18 18 19 19 19 19
52 51 46 45 46 45 45 46 47 45 47 47 39 29 24 8 -3 20 6 19 19 26 26 27 25 26 24 17 20 20 10 21 19 19 26 23 23 19 22 23 24 18 19 16 8 9 4 13 19 23 21 23 21 13 12 11 16 14 16 11 9 4 -1 -2 1 -1 1 7 11 9 3 5 6 12 16 16 19 19 20 19 20 20 20 19 19 20 20 17
52 49 46 47 46 46 46 46 46 46 45 42 32 24 8 3 10 4 14 20 21 23 21 25 22 22 21 18 23 25 10 9 22 15 22 17 14 17 17 14 21 21 20 11 15 9 12 14 20 23 21 19 22 24 22 18 14 16 15 18 12 6 13 4 5 4 3 5 6 5 5 11 14 18 19 19 17 17 19 17 18 18 19 19 19 18 18 16
51 50 49 46 45 47 46 47 46 46 43 36 28 20 16 12 0 21 23 25 25 18 18 23 22 15 16 18 22 14 22 7 18 12 11 19 19 17 20 21 19 22 12 8 11 6 14 5 19 22 23 14 15 21 22 20 2 12 10 8 10 16 9 6 12 14 11 5 5 7 11 13 14 15 16 17 16 16 16 15 16 16 16 17 17 17 15 15
45 47 43 45 46 46 46 46 46 44 43 32 27 15 19 21 20 24 33 20 21 20 21 10 17 7 10 7 12 11 10 19 16 9 7 19 15 20 22 23 23 22 17 12 15 11 5 9 18 20 18 21 21 20 22 22 18 11 9 12 19 18 16 9 2 3 2 1 4 10 7 8 9 7 15 15 14 15 15 15 15 14 15 14 14 15 14 15
45 42 37 42 43 44 45 45 45 44 39 28 19 28 26 24 29 29 28 28 25 25 19 15 12 12 7 8 12 8 14 5 11 13 9 16 12 21 21 21 24 18 18 22 10 15 13 7 14 16 17 22 22 20 19 22 22 12 11 19 8 3 5 12 6 0 2 0 3 8 8 9 11 10 12 12 13 13 13 13 14 13 12 13 13 14 15 16
45 38 36 42 43 44 46 45 44 39 31 27 22 22 27 28 28 26 27 28 25 23 15 16 8 15 13 13 11 13 10 8 9 9 8 11 10 20 19 21 23 24 24 21 18 19 18 4 12 17 16 18 13 17 9 14 20 20 20 14 18 15 4 3 5 5 6 3 -0 2 6 7 11 12 12 12 12 12 12 13 12 12 13 13 13 14 15 17
36 29 35 42 43 44 44 44 42 34 27 14 18 23 27 29 29 29 30 30 25 21 16 15 20 12 18 14 10 10 13 9 10 10 13 15 15 24 19 25 22 24 26 25 21 22 13 11 4 11 19 16 10 13 11 15 11 12 14 13 14 10 15 14 8 5 5 0 2 0 2 7 10 11 12 12 13 13 14 12 12 12 11 12 12 13 15 15
36 27 31 42 45 44 46 35 17 18 19 17 25 24 30 31 30 31 32 32 29 27 18 20 19 14 19 16 17 17 13 14 13 12 14 15 16 11 24 21 25 23 23 21 20 18 12 14 8 13 8 6 10 17 13 14 13 13 14 10 12 7 6 2 6 8 7 5 5 2 3 9 11 12 12 12 12 12 12 12 11 10 11 11 11 13 14 15
31 21 28 40 45 46 37 24 19 20 23 17 17 27 34 38 29 27 26 27 27 22 25 22 22 18 21 20 18 17 16 14 17 13 16 12 20 17 23 27 27 26 17 14 16 20 15 13 9 8 9 10 11 12 14 17 19 16 13 10 13 13 10 5 4 6 5 6 7 7 6 9 13 12 11 11 12 12 12 11 9 9 10 10 12 13 14 15
29 21 36 39 41 39 34 24 26 28 21 22 29 30 29 29 24 25 26 27 24 26 23 24 24 20 20 16 19 17 18 10 16 12 17 19 20 22 26 26 27 25 21 17 21 20 24 8 6 13 16 15 12 16 13 15 18 15 13 16 16 10 11 7 6 6 5 6 7 8 8 12 12 13 12 12 13 12 10 10 10 10 10 11 12 12 13 15
30 32 31 39 45 39 24 6 17 19 21 27 29 29 30 29 28 27 25 25 24 19 20 21 24 23 20 23 20 18 20 3 15 14 10 16 17 28 26 27 27 24 22 20 13 21 4 11 9 5 6 11 11 11 15 17 16 11 12 14 18 13 10 11 8 8 6 6 11 7 4 10 13 13 12 11 11 10 9 9 10 10 12 12 12 10 13 16
28 33 30 36 37 32 19 25 25 19 17 23 21 17 20 27 30 28 27 26 25 21 19 21 24 23 22 23 20 22 22 12 9 14 10 12 15 27 25 26 26 24 27 27 32 27 11 13 9 3 -0 -2 -2 0 6 11 12 13 18 16 15 10 10 11 7 8 6 8 11 7 7 13 9 12 11 9 9 9 9 9 11 12 13 13 12 10 16 16
24 14 27 30 33 31 28 27 24 20 18 16 16 20 19 21 28 28 28 27 25 25 20 23 23 19 19 21 22 22 23 21 11 10 11 12 16 26 25 24 26 27 30 30 28 23 15 16 13 10 7 7 11 12 17 17 12 9 9 14 13 13 13 12 9 6 5 7 8 11 10 7 6 11 10 9 9 9 9 10 11 12 13 13 10 13 17 14
26 18 19 18 26 27 24 28 27 23 16 21 16 18 13 20 24 26 30 25 27 25 25 23 23 20 19 21 20 19 20 20 20 14 12 11 13 19 25 25 26 28 29 28 29 16 13 10 15 15 14 15 15 16 17 17 12 13 9 10 14 14 11 8 7 7 12 5 3 12 7 6 6 9 9 9 8 9 9 10 12 13 13 10 10 15 16 12
21 23 24 12 21 16 21 21 27 28 26 21 16 22 19 19 20 13 23 26 26 24 22 23 23 23 19 21 20 13 18 19 19 13 15 11 15 16 17 23 24 28 25 18 17 15 11 10 12 10 8 13 14 14 14 15 10 9 8 8 10 11 11 8 8 8 5 2 4 6 6 6 8 8 8 8 8 9 10 11 13 13 10 10 13 12 11 10
26 26 22 25 23 22 14 17 27 27 27 21 21 21 17 21 18 18 16 20 25 22 22 11 22 22 22 22 19 15 19 8 11 17 9 10 13 13 14 17 23 26 22 17 16 14 12 10 12 12 12 14 15 18 18 9 6 7 8 6 6 7 6 5 5 6 6 5 6 7 8 7 8 8 8 8 8 9 11 13 13 10 8 12 11 10 9 7
31 29 25 25 23 19 19 21 23 26 19 22 16 19 20 21 22 22 23 19 16 21 23 21 23 25 24 22 22 16 19 17 11 13 13 14 16 14 14 12 13 18 19 15 16 15 11 9 17 11 11 13 15 13 12 7 6 6 6 6 6 7 8 7 5 7 8 7 8 10 9 9 10 9 8 8 8 10 12 12 10 7 8 11 9 7 6 4
35 32 34 27 23 23 20 22 21 20 18 18 22 22 23 25 23 23 22 27 19 22 25 20 24 24 24 23 24 24 26 25 23 20 23 19 15 19 13 13 19 16 17 15 17 16 10 12 12 10 9 11 13 11 7 8 7 7 6 7 6 8 7 8 5 8 7 6 8 7 6 8 8 8 8 7 8 10 11 10 7 6 10 8 6 6 4 4
33 34 35 30 24 24 18 19 22 21 16 19 22 23 17 20 23 24 20 26 27 28 26 23 24 25 23 23 25 27 27 27 25 24 23 22 23 23 21 21 21 16 16 18 18 15 14 11 11 10 8 5 13 13 8 8 7 3 5 7 7 9 9 9 9 11 9 11 5 4 4 8 8 9 7 7 8 9 10 8 5 6 8 7 7 6 5 4